Time,TemperatureF,DewpointF,PressureIn,WindDirection,WindDirectionDegrees,WindSpeedMPH,WindSpeedGustMPH,Humidity,HourlyPrecipIn,Conditions,Clouds,dailyrainin,SolarRadiationWatts/m^2,SoftwareType,DateUTC
2013-01-07 00:03:00,51.2,50.1,30.19,North,364,0.0,0.0,96,0.00,,,0.00,0,Wunderground v.1.15,2013-01-07 05:03:00,
2013-01-07 00:08:00,51.2,50.1,30.19,North,364,0.0,0.0,96,0.00,,,0.00,0,Wunderground v.1.15,2013-01-07 05:08:00,
2013-01-07 00:13:00,51.2,50.1,30.20,North,364,0.0,0.0,96,0.00,,,0.00,0,Wunderground v.1.15,2013-01-07 05:13:00,
2013-01-07 00:18:00,51.3,50.2,30.20,North,364,0.0,0.0,96,0.00,,,0.00,0,Wunderground v.1.15,2013-01-07 05:18:00,
2013-01-07 00:28:00,51.3,50.2,30.21,North,364,0.0,0.0,96,0.00,,,0.00,0,Wunderground v.1.15,2013-01-07 05:28:00,
2013-01-07 00:33:00,51.3,50.2,30.21,North,364,0.0,0.0,96,0.00,,,0.00,0,Wunderground v.1.15,2013-01-07 05:33:00,
2013-01-07 00:43:00,51.3,50.2,30.21,North,364,0.0,0.0,96,0.00,,,0.00,0,Wunderground v.1.15,2013-01-07 05:43:00,
2013-01-07 00:48:00,51.4,50.3,30.21,North,364,0.0,0.0,96,0.00,,,0.00,0,Wunderground v.1.15,2013-01-07 05:48:00,
2013-01-07 00:58:00,51.3,50.2,30.21,North,364,0.0,0.0,96,0.00,,,0.00,0,Wunderground v.1.15,2013-01-07 05:58:00,
2013-01-07 01:03:00,51.3,50.2,30.21,North,364,0.0,0.0,96,0.00,,,0.00,0,Wunderground v.1.15,2013-01-07 06:03:00,
2013-01-07 01:13:00,51.2,50.1,30.20,North,364,0.0,0.0,96,0.00,,,0.00,0,Wunderground v.1.15,2013-01-07 06:13:00,
2013-01-07 01:18:00,51.1,50.0,30.20,North,364,0.0,0.0,96,0.00,,,0.00,0,Wunderground v.1.15,2013-01-07 06:18:00,
2013-01-07 01:28:00,51.1,50.0,30.20,North,364,0.0,0.0,96,0.00,,,0.00,0,Wunderground v.1.15,2013-01-07 06:28:00,
2013-01-07 01:38:00,51.1,50.0,30.20,North,364,0.0,0.0,96,0.00,,,0.00,0,Wunderground v.1.15,2013-01-07 06:38:00,
2013-01-07 01:48:00,51.0,49.9,30.19,North,364,0.0,1.0,96,0.00,,,0.00,0,Wunderground v.1.15,2013-01-07 06:48:00,
2013-01-07 01:58:00,51.0,49.9,30.20,North,364,0.0,0.0,96,0.00,,,0.00,0,Wunderground v.1.15,2013-01-07 06:58:00,
2013-01-07 02:03:00,50.9,49.8,30.19,North,364,0.0,0.0,96,0.00,,,0.00,0,Wunderground v.1.15,2013-01-07 07:03:00,
2013-01-07 02:13:00,50.8,49.7,30.20,North,364,0.0,0.0,96,0.00,,,0.00,0,Wunderground v.1.15,2013-01-07 07:13:00,
2013-01-07 02:18:00,50.8,49.7,30.20,North,364,0.0,0.0,96,0.00,,,0.00,0,Wunderground v.1.15,2013-01-07 07:18:00,
2013-01-07 02:28:00,50.7,49.6,30.19,North,364,0.0,0.0,96,0.00,,,0.00,0,Wunderground v.1.15,2013-01-07 07:28:00,
2013-01-07 02:33:00,50.6,49.2,30.20,North,364,0.0,0.0,95,0.00,,,0.00,0,Wunderground v.1.15,2013-01-07 07:33:00,
2013-01-07 02:43:00,50.5,49.4,30.20,North,364,0.0,0.0,96,0.00,,,0.00,0,Wunderground v.1.15,2013-01-07 07:43:00,
2013-01-07 02:48:00,50.4,49.0,30.20,North,364,0.0,2.0,95,0.00,,,0.00,0,Wunderground v.1.15,2013-01-07 07:48:00,
2013-01-07 02:58:00,50.2,48.8,30.20,North,364,1.0,1.0,95,0.00,,,0.00,0,Wunderground v.1.15,2013-01-07 07:58:00,
2013-01-07 03:03:00,50.1,48.7,30.20,North,364,1.0,2.0,95,0.00,,,0.00,0,Wunderground v.1.15,2013-01-07 08:03:00,
2013-01-07 03:13:00,50.0,48.6,30.21,North,364,3.0,3.0,95,0.00,,,0.00,0,Wunderground v.1.15,2013-01-07 08:13:00,
2013-01-07 03:18:00,50.0,48.6,30.20,North,364,3.0,3.0,95,0.00,,,0.00,0,Wunderground v.1.15,2013-01-07 08:18:00,
2013-01-07 03:28:00,49.9,48.2,30.21,North,364,2.0,2.0,94,0.00,,,0.00,0,Wunderground v.1.15,2013-01-07 08:28:00,
2013-01-07 03:33:00,49.8,48.1,30.21,North,364,3.0,3.0,94,0.00,,,0.00,0,Wunderground v.1.15,2013-01-07 08:33:00,
2013-01-07 03:43:00,49.7,47.8,30.20,North,364,3.0,3.0,93,0.00,,,0.00,0,Wunderground v.1.15,2013-01-07 08:43:00,
2013-01-07 03:48:00,49.6,47.7,30.20,North,364,3.0,3.0,93,0.00,,,0.00,0,Wunderground v.1.15,2013-01-07 08:48:00,
2013-01-07 03:58:00,49.5,47.3,30.21,North,364,3.0,3.0,92,0.00,,,0.00,0,Wunderground v.1.15,2013-01-07 08:58:00,
2013-01-07 04:03:00,49.4,47.2,30.21,North,369,3.0,4.0,92,0.00,,,0.00,0,Wunderground v.1.15,2013-01-07 09:03:00,
2013-01-07 04:13:00,49.2,46.7,30.22,NNE,18,3.0,4.0,91,0.00,,,0.00,0,Wunderground v.1.15,2013-01-07 09:13:00,
2013-01-07 04:18:00,49.1,46.6,30.21,NNE,18,3.0,4.0,91,0.00,,,0.00,0,Wunderground v.1.15,2013-01-07 09:18:00,
2013-01-07 04:28:00,48.9,46.1,30.21,NNE,19,3.0,3.0,90,0.00,,,0.00,0,Wunderground v.1.15,2013-01-07 09:28:00,
2013-01-07 04:33:00,48.9,46.1,30.21,NNE,19,2.0,2.0,90,0.00,,,0.00,0,Wunderground v.1.15,2013-01-07 09:33:00,
2013-01-07 04:43:00,48.7,45.6,30.21,NNE,19,2.0,2.0,89,0.00,,,0.00,0,Wunderground v.1.15,2013-01-07 09:43:00,
2013-01-07 04:48:00,48.5,45.4,30.20,NNE,23,3.0,4.0,89,0.00,,,0.00,0,Wunderground v.1.15,2013-01-07 09:48:00,
2013-01-07 04:58:00,48.3,45.2,30.21,NNE,25,3.0,3.0,89,0.00,,,0.00,0,Wunderground v.1.15,2013-01-07 09:58:00,
2013-01-07 05:03:00,48.2,45.1,30.21,NNE,25,3.0,3.0,89,0.00,,,0.00,0,Wunderground v.1.15,2013-01-07 10:03:00,
2013-01-07 05:13:00,48.0,44.9,30.22,NNE,25,2.0,2.0,89,0.00,,,0.00,0,Wunderground v.1.15,2013-01-07 10:13:00,
2013-01-07 05:18:00,47.9,44.8,30.22,NNE,25,2.0,3.0,89,0.00,,,0.00,0,Wunderground v.1.15,2013-01-07 10:18:00,
2013-01-07 05:28:00,47.8,44.7,30.23,NNE,25,1.0,2.0,89,0.00,,,0.00,0,Wunderground v.1.15,2013-01-07 10:28:00,
2013-01-07 05:33:00,47.6,44.5,30.22,NNE,25,2.0,3.0,89,0.00,,,0.00,0,Wunderground v.1.15,2013-01-07 10:33:00,
2013-01-07 05:43:00,47.5,44.1,30.23,NNE,25,1.0,1.0,88,0.00,,,0.00,0,Wunderground v.1.15,2013-01-07 10:43:00,
2013-01-07 05:48:00,47.5,44.4,30.23,NNE,25,1.0,2.0,89,0.00,,,0.00,0,Wunderground v.1.15,2013-01-07 10:48:00,
2013-01-07 05:58:00,47.4,44.3,30.24,NNE,25,1.0,2.0,89,0.00,,,0.00,0,Wunderground v.1.15,2013-01-07 10:58:00,
2013-01-07 06:03:00,47.3,44.2,30.23,NNE,25,1.0,1.0,89,0.00,,,0.00,0,Wunderground v.1.15,2013-01-07 11:03:00,
2013-01-07 06:13:00,47.2,44.1,30.24,NNE,25,2.0,2.0,89,0.00,,,0.00,0,Wunderground v.1.15,2013-01-07 11:13:00,
2013-01-07 06:18:00,47.2,43.8,30.23,NNE,25,2.0,2.0,88,0.00,,,0.00,0,Wunderground v.1.15,2013-01-07 11:18:00,
2013-01-07 06:28:00,47.1,43.7,30.23,NNE,25,2.0,2.0,88,0.00,,,0.00,0,Wunderground v.1.15,2013-01-07 11:28:00,
2013-01-07 06:33:00,47.0,43.6,30.24,NNE,25,2.0,2.0,88,0.00,,,0.00,0,Wunderground v.1.15,2013-01-07 11:33:00,
2013-01-07 06:43:00,46.9,43.5,30.24,NNE,25,2.0,5.0,88,0.00,,,0.00,0,Wunderground v.1.15,2013-01-07 11:43:00,
2013-01-07 06:48:00,46.9,43.5,30.25,NNE,25,2.0,5.0,88,0.00,,,0.00,0,Wunderground v.1.15,2013-01-07 11:48:00,
2013-01-07 06:58:00,46.8,43.4,30.25,NNE,25,0.0,4.0,88,0.00,,,0.00,0,Wunderground v.1.15,2013-01-07 11:58:00,
2013-01-07 07:03:00,46.7,43.3,30.25,NNE,25,1.0,1.0,88,0.00,,,0.00,0,Wunderground v.1.15,2013-01-07 12:03:00,
2013-01-07 07:13:00,46.6,43.2,30.26,NNE,25,0.0,3.0,88,0.00,,,0.00,0,Wunderground v.1.15,2013-01-07 12:13:00,
2013-01-07 07:18:00,46.5,43.1,30.25,NNE,25,1.0,3.0,88,0.00,,,0.00,0,Wunderground v.1.15,2013-01-07 12:18:00,
2013-01-07 07:28:00,46.5,43.1,30.25,NNE,25,0.0,1.0,88,0.00,,,0.00,0,Wunderground v.1.15,2013-01-07 12:28:00,
2013-01-07 07:33:00,46.5,43.1,30.26,NNE,25,0.0,0.0,88,0.00,,,0.00,7,Wunderground v.1.15,2013-01-07 12:33:00,
2013-01-07 07:43:00,46.4,43.0,30.26,NNE,25,0.0,0.0,88,0.00,,,0.00,9,Wunderground v.1.15,2013-01-07 12:43:00,
2013-01-07 07:48:00,46.4,43.0,30.27,NNE,25,1.0,1.0,88,0.00,,,0.00,12,Wunderground v.1.15,2013-01-07 12:48:00,
2013-01-07 07:53:00,46.4,43.0,30.26,NNE,25,1.0,1.0,88,0.00,,,0.00,19,Wunderground v.1.15,2013-01-07 12:53:00,
2013-01-07 07:58:00,46.3,42.9,30.26,NNE,25,1.0,4.0,88,0.00,,,0.00,28,Wunderground v.1.15,2013-01-07 12:58:00,
2013-01-07 08:03:00,46.3,42.9,30.26,NNE,25,1.0,1.0,88,0.00,,,0.00,46,Wunderground v.1.15,2013-01-07 13:03:00,
2013-01-07 08:13:00,46.4,43.0,30.26,NNE,25,2.0,2.0,88,0.00,,,0.00,60,Wunderground v.1.15,2013-01-07 13:13:00,
2013-01-07 08:18:00,46.5,43.1,30.27,NNE,25,1.0,2.0,88,0.00,,,0.00,72,Wunderground v.1.15,2013-01-07 13:18:00,
2013-01-07 08:28:00,46.7,43.3,30.27,NNE,25,2.0,4.0,88,0.00,,,0.00,90,Wunderground v.1.15,2013-01-07 13:28:00,
2013-01-07 08:33:00,46.9,43.5,30.27,NNE,25,1.0,1.0,88,0.00,,,0.00,91,Wunderground v.1.15,2013-01-07 13:33:00,
2013-01-07 08:43:00,47.2,43.8,30.27,NNE,25,1.0,1.0,88,0.00,,,0.00,90,Wunderground v.1.15,2013-01-07 13:43:00,
2013-01-07 08:48:00,47.3,43.9,30.27,NNE,25,1.0,1.0,88,0.00,,,0.00,95,Wunderground v.1.15,2013-01-07 13:48:00,
2013-01-07 08:58:00,47.5,43.8,30.28,NNE,25,1.0,3.0,87,0.00,,,0.00,100,Wunderground v.1.15,2013-01-07 13:58:00,
2013-01-07 09:03:00,47.7,44.0,30.28,NNE,25,1.0,1.0,87,0.00,,,0.00,111,Wunderground v.1.15,2013-01-07 14:03:00,
2013-01-07 09:13:00,48.1,44.4,30.29,NNE,25,2.0,2.0,87,0.00,,,0.00,113,Wunderground v.1.15,2013-01-07 14:13:00,
2013-01-07 09:18:00,48.4,44.7,30.29,NNE,25,1.0,2.0,87,0.00,,,0.00,132,Wunderground v.1.15,2013-01-07 14:18:00,
2013-01-07 09:28:00,49.1,45.4,30.29,NNE,25,0.0,3.0,87,0.00,,,0.00,137,Wunderground v.1.15,2013-01-07 14:28:00,
2013-01-07 09:33:00,49.4,45.7,30.29,NNE,25,1.0,3.0,87,0.00,,,0.00,169,Wunderground v.1.15,2013-01-07 14:33:00,
2013-01-07 09:43:00,50.0,46.0,30.29,NNE,25,2.0,2.0,86,0.00,,,0.00,223,Wunderground v.1.15,2013-01-07 14:43:00,
2013-01-07 09:53:00,50.8,46.8,30.29,NNE,25,1.0,1.0,86,0.00,,,0.00,160,Wunderground v.1.15,2013-01-07 14:53:00,
2013-01-07 09:58:00,51.0,47.0,30.30,NNE,25,1.0,4.0,86,0.00,,,0.00,181,Wunderground v.1.15,2013-01-07 14:58:00,
2013-01-07 10:03:00,51.1,46.7,30.30,NNE,25,2.0,3.0,85,0.00,,,0.00,301,Wunderground v.1.15,2013-01-07 15:03:00,
2013-01-07 10:28:00,52.1,47.7,30.30,NNE,25,0.0,2.0,85,0.00,,,0.00,179,Wunderground v.1.15,2013-01-07 15:28:00,
2013-01-07 10:33:00,52.2,47.8,30.30,NNE,25,1.0,2.0,85,0.00,,,0.00,216,Wunderground v.1.15,2013-01-07 15:33:00,
2013-01-07 10:43:00,52.8,48.4,30.31,NNE,25,1.0,2.0,85,0.00,,,0.00,199,Wunderground v.1.15,2013-01-07 15:43:00,
2013-01-07 10:48:00,53.0,48.3,30.30,NNE,25,2.0,2.0,84,0.00,,,0.00,229,Wunderground v.1.15,2013-01-07 15:48:00,
2013-01-07 10:58:00,53.3,48.6,30.30,NNE,25,1.0,2.0,84,0.00,,,0.00,271,Wunderground v.1.15,2013-01-07 15:58:00,
2013-01-07 11:03:00,53.8,49.1,30.30,NNE,25,0.0,0.0,84,0.00,,,0.00,290,Wunderground v.1.15,2013-01-07 16:03:00,
2013-01-07 11:13:00,54.8,49.4,30.30,NNE,25,0.0,3.0,82,0.00,,,0.00,420,Wunderground v.1.15,2013-01-07 16:13:00,
2013-01-07 11:18:00,55.7,50.3,30.29,NNE,25,1.0,3.0,82,0.00,,,0.00,807,Wunderground v.1.15,2013-01-07 16:18:00,
2013-01-07 11:28:00,57.3,50.8,30.28,NNE,25,1.0,1.0,79,0.00,,,0.00,568,Wunderground v.1.15,2013-01-07 16:28:00,
2013-01-07 11:38:00,58.1,52.0,30.28,NNE,25,1.0,1.0,80,0.00,,,0.00,341,Wunderground v.1.15,2013-01-07 16:38:00,
2013-01-07 11:43:00,58.7,52.5,30.29,NNE,25,1.0,1.0,80,0.00,,,0.00,596,Wunderground v.1.15,2013-01-07 16:43:00,
2013-01-07 11:48:00,59.5,53.0,30.28,NNE,25,1.0,2.0,79,0.00,,,0.00,749,Wunderground v.1.15,2013-01-07 16:48:00,
2013-01-07 11:58:00,60.2,53.0,30.28,NNE,25,2.0,3.0,77,0.00,,,0.00,564,Wunderground v.1.15,2013-01-07 16:58:00,
2013-01-07 12:03:00,60.6,53.3,30.28,NNE,25,2.0,4.0,77,0.00,,,0.00,411,Wunderground v.1.15,2013-01-07 17:03:00,
2013-01-07 12:13:00,60.9,53.3,30.27,NNE,20,3.0,5.0,76,0.00,,,0.00,339,Wunderground v.1.15,2013-01-07 17:13:00,
2013-01-07 12:18:00,60.9,53.3,30.26,NNE,22,2.0,5.0,76,0.00,,,0.00,301,Wunderground v.1.15,2013-01-07 17:18:00,
2013-01-07 12:28:00,60.8,53.2,30.26,North,364,2.0,3.0,76,0.00,,,0.00,348,Wunderground v.1.15,2013-01-07 17:28:00,
2013-01-07 12:33:00,61.0,53.4,30.26,North,360,2.0,2.0,76,0.00,,,0.00,262,Wunderground v.1.15,2013-01-07 17:33:00,
2013-01-07 12:43:00,60.6,53.0,30.25,North,369,3.0,4.0,76,0.00,,,0.00,283,Wunderground v.1.15,2013-01-07 17:43:00,
2013-01-07 12:48:00,60.5,52.9,30.25,North,369,3.0,4.0,76,0.00,,,0.00,295,Wunderground v.1.15,2013-01-07 17:48:00,
2013-01-07 12:58:00,61.1,53.8,30.25,NNE,18,2.0,2.0,77,0.00,,,0.00,512,Wunderground v.1.15,2013-01-07 17:58:00,
2013-01-07 13:03:00,62.3,54.6,30.25,NNE,18,2.0,2.0,76,0.00,,,0.00,831,Wunderground v.1.15,2013-01-07 18:03:00,
2013-01-07 13:13:00,62.5,53.7,30.24,NNE,18,1.0,1.0,73,0.00,,,0.00,362,Wunderground v.1.15,2013-01-07 18:13:00,
2013-01-07 13:18:00,62.2,53.8,30.24,NNE,18,1.0,1.0,74,0.00,,,0.00,478,Wunderground v.1.15,2013-01-07 18:18:00,
2013-01-07 13:28:00,62.1,54.1,30.24,NNE,20,2.0,6.0,75,0.00,,,0.00,397,Wunderground v.1.15,2013-01-07 18:28:00,
2013-01-07 13:33:00,62.0,53.6,30.24,North,364,3.0,3.0,74,0.00,,,0.00,322,Wunderground v.1.15,2013-01-07 18:33:00,
2013-01-07 13:43:00,61.7,53.7,30.24,NNE,14,3.0,5.0,75,0.00,,,0.00,272,Wunderground v.1.15,2013-01-07 18:43:00,
2013-01-07 13:53:00,62.1,54.1,30.24,NE,35,4.0,4.0,75,0.00,,,0.00,638,Wunderground v.1.15,2013-01-07 18:53:00,
2013-01-07 14:08:00,62.7,54.3,30.24,NNE,29,3.0,4.0,74,0.00,,,0.00,617,Wunderground v.1.15,2013-01-07 19:08:00,
2013-01-07 14:18:00,63.5,54.7,30.24,NNE,31,2.0,4.0,73,0.00,,,0.00,575,Wunderground v.1.15,2013-01-07 19:18:00,
2013-01-07 14:28:00,64.0,54.8,30.24,NNE,31,2.0,2.0,72,0.00,,,0.00,504,Wunderground v.1.15,2013-01-07 19:28:00,
2013-01-07 14:33:00,64.0,54.8,30.25,NNE,31,1.0,2.0,72,0.00,,,0.00,260,Wunderground v.1.15,2013-01-07 19:33:00,
2013-01-07 14:43:00,63.8,54.6,30.24,NNE,26,1.0,1.0,72,0.00,,,0.00,438,Wunderground v.1.15,2013-01-07 19:43:00,
2013-01-07 14:48:00,63.9,54.7,30.25,NNE,25,1.0,5.0,72,0.00,,,0.00,359,Wunderground v.1.15,2013-01-07 19:48:00,
2013-01-07 14:58:00,64.1,54.9,30.25,NNE,26,2.0,3.0,72,0.00,,,0.00,446,Wunderground v.1.15,2013-01-07 19:58:00,
2013-01-07 15:03:00,64.1,54.5,30.25,NNE,26,1.0,1.0,71,0.00,,,0.00,422,Wunderground v.1.15,2013-01-07 20:03:00,
2013-01-07 15:13:00,63.9,54.3,30.25,NNE,26,2.0,3.0,71,0.00,,,0.00,397,Wunderground v.1.15,2013-01-07 20:13:00,
2013-01-07 15:18:00,63.5,54.3,30.25,NNE,31,3.0,3.0,72,0.00,,,0.00,178,Wunderground v.1.15,2013-01-07 20:18:00,
2013-01-07 15:28:00,63.1,53.9,30.25,NNE,24,3.0,6.0,72,0.00,,,0.00,141,Wunderground v.1.15,2013-01-07 20:28:00,
2013-01-07 15:33:00,62.6,53.4,30.25,NNE,24,5.0,5.0,72,0.00,,,0.00,332,Wunderground v.1.15,2013-01-07 20:33:00,
2013-01-07 15:38:00,62.4,53.6,30.25,NNE,31,4.0,5.0,73,0.00,,,0.00,309,Wunderground v.1.15,2013-01-07 20:38:00,
2013-01-07 15:43:00,62.2,53.4,30.25,NE,43,4.0,5.0,73,0.00,,,0.00,297,Wunderground v.1.15,2013-01-07 20:43:00,
2013-01-07 15:48:00,62.0,53.2,30.25,NE,46,4.0,5.0,73,0.00,,,0.00,199,Wunderground v.1.15,2013-01-07 20:48:00,
2013-01-07 15:58:00,61.5,53.1,30.25,NE,40,4.0,6.0,74,0.00,,,0.00,76,Wunderground v.1.15,2013-01-07 20:58:00,
2013-01-07 16:03:00,61.0,52.7,30.25,NNE,14,5.0,5.0,74,0.00,,,0.00,72,Wunderground v.1.15,2013-01-07 21:03:00,
2013-01-07 16:13:00,60.4,52.4,30.25,NE,37,4.0,6.0,75,0.00,,,0.00,60,Wunderground v.1.15,2013-01-07 21:13:00,
2013-01-07 16:23:00,59.8,52.2,30.25,NNE,21,4.0,4.0,76,0.00,,,0.00,74,Wunderground v.1.15,2013-01-07 21:23:00,
2013-01-07 16:28:00,59.6,52.4,30.25,NE,35,4.0,6.0,77,0.00,,,0.00,90,Wunderground v.1.15,2013-01-07 21:28:00,
2013-01-07 16:33:00,59.3,52.1,30.25,NNE,24,4.0,6.0,77,0.00,,,0.00,76,Wunderground v.1.15,2013-01-07 21:33:00,
2013-01-07 16:43:00,59.0,52.5,30.25,NNE,33,4.0,6.0,79,0.00,,,0.00,56,Wunderground v.1.15,2013-01-07 21:43:00,
2013-01-07 16:48:00,58.9,52.4,30.25,NNE,14,4.0,6.0,79,0.00,,,0.00,49,Wunderground v.1.15,2013-01-07 21:48:00,
2013-01-07 16:53:00,58.7,52.2,30.24,NE,37,3.0,3.0,79,0.00,,,0.00,53,Wunderground v.1.15,2013-01-07 21:53:00,
2013-01-07 16:58:00,58.6,52.1,30.25,NE,43,4.0,4.0,79,0.00,,,0.00,44,Wunderground v.1.15,2013-01-07 21:58:00,
2013-01-07 17:03:00,58.4,52.3,30.25,NE,45,3.0,6.0,80,0.00,,,0.00,30,Wunderground v.1.15,2013-01-07 22:03:00,
2013-01-07 17:13:00,58.0,51.9,30.25,NNE,24,3.0,4.0,80,0.00,,,0.00,19,Wunderground v.1.15,2013-01-07 22:13:00,
2013-01-07 17:18:00,57.8,52.0,30.25,NNE,33,3.0,6.0,81,0.00,,,0.00,12,Wunderground v.1.15,2013-01-07 22:18:00,
2013-01-07 17:28:00,57.5,51.7,30.26,NNE,30,4.0,7.0,81,0.00,,,0.00,9,Wunderground v.1.15,2013-01-07 22:28:00,
2013-01-07 17:33:00,57.4,51.6,30.26,NNE,31,3.0,3.0,81,0.00,,,0.00,5,Wunderground v.1.15,2013-01-07 22:33:00,
2013-01-07 17:43:00,57.1,51.7,30.26,NNE,27,4.0,4.0,82,0.00,,,0.00,0,Wunderground v.1.15,2013-01-07 22:43:00,
2013-01-07 17:48:00,56.9,51.5,30.26,NNE,21,4.0,4.0,82,0.00,,,0.00,0,Wunderground v.1.15,2013-01-07 22:48:00,
2013-01-07 17:58:00,56.8,51.7,30.27,NE,39,3.0,3.0,83,0.00,,,0.00,0,Wunderground v.1.15,2013-01-07 22:58:00,
2013-01-07 18:03:00,56.6,51.5,30.27,NNE,33,2.0,2.0,83,0.00,,,0.00,0,Wunderground v.1.15,2013-01-07 23:03:00,
2013-01-07 18:13:00,56.5,51.7,30.26,NE,41,3.0,4.0,84,0.00,,,0.00,0,Wunderground v.1.15,2013-01-07 23:13:00,
2013-01-07 18:18:00,56.4,51.6,30.27,NNE,18,3.0,4.0,84,0.00,,,0.00,0,Wunderground v.1.15,2013-01-07 23:18:00,
2013-01-07 18:28:00,56.3,51.5,30.27,NE,42,3.0,4.0,84,0.00,,,0.00,0,Wunderground v.1.15,2013-01-07 23:28:00,
2013-01-07 18:33:00,56.2,51.7,30.27,NE,41,3.0,3.0,85,0.00,,,0.00,0,Wunderground v.1.15,2013-01-07 23:33:00,
2013-01-07 18:43:00,56.2,51.7,30.27,NE,35,2.0,2.0,85,0.00,,,0.00,0,Wunderground v.1.15,2013-01-07 23:43:00,
2013-01-07 18:48:00,56.1,51.7,30.27,NE,35,1.0,2.0,85,0.00,,,0.00,0,Wunderground v.1.15,2013-01-07 23:48:00,
2013-01-07 18:53:00,56.1,51.7,30.27,NE,37,2.0,4.0,85,0.00,,,0.00,0,Wunderground v.1.15,2013-01-07 23:53:00,
2013-01-07 18:58:00,56.0,51.6,30.27,NE,41,2.0,6.0,85,0.00,,,0.00,0,Wunderground v.1.15,2013-01-07 23:58:00,
2013-01-07 19:03:00,56.0,51.6,30.27,NNE,31,3.0,3.0,85,0.00,,,0.00,0,Wunderground v.1.15,2013-01-08 00:03:00,
2013-01-07 19:13:00,55.9,51.5,30.27,NE,39,3.0,3.0,85,0.00,,,0.00,0,Wunderground v.1.15,2013-01-08 00:13:00,
2013-01-07 19:18:00,55.9,51.5,30.27,NE,44,3.0,5.0,85,0.00,,,0.00,0,Wunderground v.1.15,2013-01-08 00:18:00,
2013-01-07 19:28:00,55.9,51.5,30.27,NNE,31,3.0,4.0,85,0.00,,,0.00,0,Wunderground v.1.15,2013-01-08 00:28:00,
2013-01-07 19:33:00,55.9,51.5,30.27,NE,46,2.0,2.0,85,0.00,,,0.00,0,Wunderground v.1.15,2013-01-08 00:33:00,
2013-01-07 19:43:00,55.9,51.5,30.26,NNE,26,3.0,3.0,85,0.00,,,0.00,0,Wunderground v.1.15,2013-01-08 00:43:00,
2013-01-07 19:48:00,56.0,51.6,30.26,NNE,30,3.0,6.0,85,0.00,,,0.00,0,Wunderground v.1.15,2013-01-08 00:48:00,
2013-01-07 19:58:00,56.1,51.7,30.27,NNE,20,3.0,3.0,85,0.00,,,0.00,0,Wunderground v.1.15,2013-01-08 00:58:00,
2013-01-07 20:03:00,56.1,51.7,30.27,NNE,18,1.0,2.0,85,0.00,,,0.00,0,Wunderground v.1.15,2013-01-08 01:03:00,
2013-01-07 20:13:00,56.1,51.7,30.27,NNE,26,2.0,2.0,85,0.00,,,0.00,0,Wunderground v.1.15,2013-01-08 01:13:00,
2013-01-07 20:18:00,56.2,51.7,30.27,NNE,29,2.0,3.0,85,0.00,,,0.00,0,Wunderground v.1.15,2013-01-08 01:18:00,
2013-01-07 20:28:00,56.2,51.7,30.27,NNE,28,1.0,4.0,85,0.00,,,0.00,0,Wunderground v.1.15,2013-01-08 01:28:00,
2013-01-07 20:33:00,56.2,51.7,30.27,NNE,30,1.0,1.0,85,0.00,,,0.00,0,Wunderground v.1.15,2013-01-08 01:33:00,
2013-01-07 20:43:00,56.2,51.7,30.27,NE,40,2.0,4.0,85,0.00,,,0.00,0,Wunderground v.1.15,2013-01-08 01:43:00,
2013-01-07 20:48:00,56.3,51.8,30.27,NE,40,3.0,4.0,85,0.00,,,0.00,0,Wunderground v.1.15,2013-01-08 01:48:00,
2013-01-07 20:58:00,56.4,52.3,30.27,NE,40,0.0,2.0,86,0.00,,,0.00,0,Wunderground v.1.15,2013-01-08 01:58:00,
2013-01-07 21:03:00,56.6,52.5,30.27,NE,41,1.0,2.0,86,0.00,,,0.00,0,Wunderground v.1.15,2013-01-08 02:03:00,
2013-01-07 21:13:00,56.7,52.6,30.26,NNE,30,1.0,1.0,86,0.00,,,0.00,0,Wunderground v.1.15,2013-01-08 02:13:00,
2013-01-07 21:18:00,56.7,52.6,30.26,NNE,30,1.0,3.0,86,0.00,,,0.00,0,Wunderground v.1.15,2013-01-08 02:18:00,
2013-01-07 21:28:00,56.8,52.7,30.26,NNE,28,2.0,2.0,86,0.00,,,0.00,0,Wunderground v.1.15,2013-01-08 02:28:00,
2013-01-07 21:38:00,56.7,52.6,30.26,NNE,28,1.0,1.0,86,0.00,,,0.00,0,Wunderground v.1.15,2013-01-08 02:38:00,
2013-01-07 21:43:00,56.7,52.6,30.26,NNE,29,1.0,1.0,86,0.00,,,0.00,0,Wunderground v.1.15,2013-01-08 02:43:00,
2013-01-07 21:48:00,56.6,52.5,30.26,NNE,29,2.0,2.0,86,0.00,,,0.00,0,Wunderground v.1.15,2013-01-08 02:48:00,
2013-01-07 21:58:00,56.6,52.5,30.26,NNE,29,1.0,2.0,86,0.00,,,0.00,0,Wunderground v.1.15,2013-01-08 02:58:00,
2013-01-07 22:03:00,56.6,52.5,30.26,NNE,29,1.0,1.0,86,0.00,,,0.00,0,Wunderground v.1.15,2013-01-08 03:03:00,
2013-01-07 22:13:00,56.7,52.6,30.26,NNE,29,0.0,0.0,86,0.00,,,0.00,0,Wunderground v.1.15,2013-01-08 03:13:00,
2013-01-07 22:23:00,56.6,52.8,30.26,NNE,29,1.0,4.0,87,0.00,,,0.00,0,Wunderground v.1.15,2013-01-08 03:23:00,
2013-01-07 22:28:00,56.6,52.8,30.26,NNE,31,1.0,4.0,87,0.00,,,0.00,0,Wunderground v.1.15,2013-01-08 03:28:00,
2013-01-07 22:33:00,56.6,52.8,30.26,NNE,31,1.0,1.0,87,0.00,,,0.00,0,Wunderground v.1.15,2013-01-08 03:33:00,
2013-01-07 22:43:00,56.6,52.8,30.26,NNE,31,0.0,0.0,87,0.00,,,0.00,0,Wunderground v.1.15,2013-01-08 03:43:00,
2013-01-07 22:48:00,56.7,52.9,30.26,NNE,31,0.0,0.0,87,0.00,,,0.00,0,Wunderground v.1.15,2013-01-08 03:48:00,
2013-01-07 22:58:00,56.7,52.9,30.25,NNE,31,0.0,0.0,87,0.00,,,0.00,0,Wunderground v.1.15,2013-01-08 03:58:00,
2013-01-07 23:03:00,56.7,52.9,30.25,NNE,31,0.0,0.0,87,0.00,,,0.00,0,Wunderground v.1.15,2013-01-08 04:03:00,
2013-01-07 23:13:00,56.8,53.0,30.25,NNE,31,0.0,2.0,87,0.00,,,0.00,0,Wunderground v.1.15,2013-01-08 04:13:00,
2013-01-07 23:18:00,56.9,53.1,30.24,NNE,31,1.0,2.0,87,0.00,,,0.00,0,Wunderground v.1.15,2013-01-08 04:18:00,
2013-01-07 23:28:00,57.0,53.5,30.24,NNE,31,0.0,0.0,88,0.00,,,0.00,0,Wunderground v.1.15,2013-01-08 04:28:00,
2013-01-07 23:33:00,57.0,53.5,30.24,NNE,31,0.0,0.0,88,0.00,,,0.00,0,Wunderground v.1.15,2013-01-08 04:33:00,
2013-01-07 23:43:00,57.1,53.6,30.23,NNE,31,0.0,0.0,88,0.00,,,0.00,0,Wunderground v.1.15,2013-01-08 04:43:00,
2013-01-07 23:48:00,57.1,53.6,30.24,NNE,31,0.0,0.0,88,0.00,,,0.00,0,Wunderground v.1.15,2013-01-08 04:48:00,
2013-01-07 23:58:00,57.1,53.6,30.24,NNE,31,0.0,0.0,88,0.00,,,0.00,0,Wunderground v.1.15,2013-01-08 04:58:00,